Weather History for Litchfield, MN

Change the Weather History Date:

Thursday, October 31, 2013

  Actual Average Record
Temperature  
Mean Temperature 40 °F -  
Max Temperature 44 °F 50 °F 81 °F (1950)
Min Temperature 37 °F 34 °F 12 °F (1951)
Degree Days  
Heating Degree Days 24    
Moisture  
Dew Point 40 °F    
Average Humidity 99    
Maximum Humidity 100    
Minimum Humidity 93    
Precipitation  
Precipitation 0.00 in - - ()
Sea Level Pressure  
Sea Level Pressure 29.52 in    
Wind  
Wind Speed 4 mph (WNW)    
Max Wind Speed 12 mph    
Max Gust Speed 16 mph    
Visibility 5 miles    
Events Rain    
Averages and records for this station are not official NWS values.
T = Trace of Precipitation, MM = Missing Value Source: NWS Daily Summary

Daily Weather History Graph

Daily Weather History Graph

Search for Another Location

Airport:

Trip Planner

Search our weather history database for the weather conditions in past years. The results will help you decide how hot, cold, wet, or windy it might be!

Date:

Astronomy

Oct. 31, 2013 Rise Set
Actual Time 7:55 AM CDT 6:06 PM CDT
Civil Twilight 7:25 AM CDT 6:37 PM CDT
Nautical Twilight 6:50 AM CDT 7:12 PM CDT
Astronomical Twilight 6:16 AM CDT 7:46 PM CDT
Moon 4:38 AM CDT (10/31) 4:31 PM CDT (10/31)
Length of Visible Light 11h 12m
Length of Day
10h 11m
Waning Crescent, 10% of the Moon is Illuminated
Oct 31
Waning Crescent
Nov 3
New
Nov 9
First Quarter
Nov 17
Full
Nov 25
Last Quarter

Hourly Weather History & Observations

Time (CDT) Temp. Windchill Dew Point Humidity Pressure Visibility Wind Dir Wind Speed Gust Speed Precip Events Conditions
12:13 AM 44.6 °F 41.4 °F 44.6 °F 100% 29.68 in 1.5 mi West 5.8 mph - N/A   Drizzle
12:32 AM 44.6 °F 40.2 °F 44.6 °F 100% 29.68 in 2.5 mi West 8.1 mph - N/A   Light Drizzle
12:53 AM 44.6 °F 41.4 °F 44.6 °F 100% 29.67 in 3.0 mi WNW 5.8 mph - N/A   Light Drizzle
1:13 AM 42.8 °F 40.1 °F 42.8 °F 100% 29.66 in 2.5 mi WNW 4.6 mph - N/A   Light Drizzle
1:32 AM 42.8 °F 41.1 °F 42.8 °F 100% 29.66 in 3.0 mi WNW 3.5 mph - N/A   Light Drizzle
1:53 AM 42.8 °F 37.0 °F 42.8 °F 100% 29.65 in 5.0 mi WNW 10.4 mph - N/A   Overcast
2:13 AM 42.8 °F 41.1 °F 42.8 °F 100% 29.65 in 5.0 mi WNW 3.5 mph - N/A   Overcast
2:32 AM 41.0 °F - 41.0 °F 100% 29.64 in 7.0 mi Calm Calm - N/A   Overcast
2:53 AM 41.0 °F - 41.0 °F 100% 29.64 in 4.0 mi Calm Calm - N/A   Overcast
3:12 AM 41.0 °F 39.0 °F 41.0 °F 100% 29.63 in 2.5 mi West 3.5 mph - N/A   Overcast
3:33 AM 41.0 °F - 41.0 °F 100% 29.63 in 2.5 mi Calm Calm - N/A   Overcast
3:53 AM 41.0 °F - 41.0 °F 100% 29.61 in 2.5 mi Calm Calm - N/A   Overcast
4:12 AM 41.0 °F - 41.0 °F 100% 29.59 in 2.0 mi Calm Calm - N/A   Overcast
4:33 AM 41.0 °F 39.0 °F 41.0 °F 100% 29.58 in 1.5 mi WNW 3.5 mph - N/A   Overcast
4:53 AM 39.2 °F - 39.2 °F 100% 29.58 in 2.5 mi Calm Calm - N/A   Overcast
5:12 AM 39.2 °F - 39.2 °F 100% 29.58 in 1.8 mi Calm Calm - N/A   Overcast
5:33 AM 39.2 °F - 39.2 °F 100% 29.59 in 1.8 mi Calm Calm - N/A   Overcast
5:53 AM 39.2 °F - 39.2 °F 100% 29.59 in 1.8 mi Calm Calm - N/A   Overcast
6:12 AM 39.2 °F - 39.2 °F 100% 29.58 in 5.0 mi Calm Calm - N/A   Overcast
6:33 AM 39.2 °F 37.0 °F 39.2 °F 100% 29.58 in 4.0 mi West 3.5 mph - N/A   Overcast
6:52 AM 39.2 °F 34.2 °F 39.2 °F 100% 29.57 in 1.5 mi West 6.9 mph - N/A   Overcast
7:13 AM 39.2 °F 35.0 °F 39.2 °F 100% 29.58 in 0.8 mi West 5.8 mph - N/A   Overcast
7:33 AM 39.2 °F 33.6 °F 39.2 °F 100% 29.57 in 1.5 mi West 8.1 mph - N/A   Overcast
7:52 AM 37.4 °F 30.8 °F 37.4 °F 100% 29.56 in 0.8 mi West 9.2 mph - N/A   Overcast
8:13 AM 37.4 °F - 37.4 °F 100% 29.57 in 1.5 mi Calm Calm - N/A   Overcast
8:33 AM 37.4 °F 32.8 °F 37.4 °F 100% 29.57 in 2.5 mi West 5.8 mph - N/A   Overcast
8:52 AM 37.4 °F - 37.4 °F 100% 29.56 in 3.0 mi Calm Calm - N/A   Overcast
9:13 AM 37.4 °F - 37.4 °F 100% 29.55 in 2.5 mi Calm Calm - N/A   Overcast
9:32 AM 37.4 °F - 37.4 °F 100% 29.54 in 2.5 mi Calm Calm - N/A   Overcast
9:53 AM 37.4 °F 33.8 °F 37.4 °F 100% 29.55 in 2.0 mi West 4.6 mph - N/A   Overcast
10:13 AM 37.4 °F 34.9 °F 37.4 °F 100% 29.55 in 2.0 mi West 3.5 mph - N/A   Overcast
10:32 AM 37.4 °F - 37.4 °F 100% 29.55 in 2.5 mi Calm Calm - N/A   Overcast
10:53 AM 37.4 °F 34.9 °F 37.4 °F 100% 29.53 in 2.0 mi West 3.5 mph - N/A   Overcast
11:13 AM 37.4 °F 33.8 °F 37.4 °F 100% 29.53 in 5.0 mi West 4.6 mph - N/A   Overcast
11:32 AM 37.4 °F - 37.4 °F 100% 29.53 in 5.0 mi Calm Calm - N/A   Overcast
11:53 AM 39.2 °F 37.0 °F 39.2 °F 100% 29.53 in 10.0 mi West 3.5 mph - N/A   Overcast
12:13 PM 39.2 °F 35.0 °F 39.2 °F 100% 29.52 in 5.0 mi West 5.8 mph - N/A   Overcast
12:32 PM 39.2 °F 37.0 °F 39.2 °F 100% 29.51 in 2.5 mi West 3.5 mph - N/A   Overcast
12:53 PM 39.2 °F - 39.2 °F 100% 29.50 in 2.5 mi Calm Calm - N/A   Overcast
1:12 PM 39.2 °F 33.6 °F 39.2 °F 100% 29.49 in 3.0 mi West 8.1 mph - N/A   Overcast
1:33 PM 39.2 °F - 39.2 °F 100% 29.48 in 5.0 mi Calm Calm - N/A   Overcast
1:53 PM 39.2 °F 35.9 °F 39.2 °F 100% 29.47 in 3.0 mi West 4.6 mph - N/A   Overcast
2:13 PM 39.2 °F - 39.2 °F 100% 29.46 in 4.0 mi Calm Calm - N/A   Overcast
2:32 PM 39.2 °F 35.0 °F 39.2 °F 100% 29.45 in 7.0 mi West 5.8 mph - N/A   Overcast
2:53 PM 39.2 °F 33.6 °F 39.2 °F 100% 29.44 in 10.0 mi WNW 8.1 mph - N/A   Overcast
3:12 PM 39.2 °F 33.0 °F 39.2 °F 100% 29.44 in 10.0 mi WNW 9.2 mph - N/A   Overcast
3:33 PM 39.2 °F 33.0 °F 39.2 °F 100% 29.43 in 10.0 mi WNW 9.2 mph - N/A   Overcast
3:53 PM 39.2 °F 33.6 °F 39.2 °F 100% 29.43 in 10.0 mi WNW 8.1 mph - N/A   Overcast
4:12 PM 39.2 °F 35.9 °F 39.2 °F 100% 29.43 in 10.0 mi WNW 4.6 mph - N/A   Overcast
4:33 PM 41.0 °F 39.0 °F 39.2 °F 93% 29.43 in 10.0 mi WNW 3.5 mph - N/A   Overcast
4:53 PM 41.0 °F 36.4 °F 39.2 °F 93% 29.43 in 10.0 mi WNW 6.9 mph - N/A   Overcast
5:12 PM 41.0 °F 39.0 °F 39.2 °F 93% 29.43 in 10.0 mi WNW 3.5 mph - N/A   Overcast
5:33 PM 39.2 °F - 39.2 °F 100% 29.43 in 7.0 mi Calm Calm - N/A   Overcast
5:53 PM 39.2 °F 34.2 °F 39.2 °F 100% 29.43 in 7.0 mi WNW 6.9 mph - N/A   Overcast
6:12 PM 39.2 °F 35.9 °F 39.2 °F 100% 29.43 in 7.0 mi West 4.6 mph - N/A   Overcast
6:33 PM 39.2 °F 34.2 °F 39.2 °F 100% 29.43 in 10.0 mi WNW 6.9 mph - N/A   Overcast
6:53 PM 39.2 °F - 39.2 °F 100% 29.43 in 10.0 mi Calm Calm - N/A   Overcast
7:12 PM 39.2 °F 34.2 °F 39.2 °F 100% 29.43 in 10.0 mi WNW 6.9 mph - N/A   Overcast
7:33 PM 39.2 °F - 39.2 °F 100% 29.43 in 10.0 mi Calm Calm - N/A Rain Rain
7:53 PM 39.2 °F 35.0 °F 39.2 °F 100% 29.44 in 10.0 mi WNW 5.8 mph - N/A   Overcast
8:12 PM 39.2 °F 33.0 °F 39.2 °F 100% 29.44 in 10.0 mi WNW 9.2 mph - N/A   Overcast
8:33 PM 39.2 °F 35.9 °F 39.2 °F 100% 29.43 in 10.0 mi WNW 4.6 mph - N/A   Overcast
8:53 PM 39.2 °F 33.6 °F 39.2 °F 100% 29.43 in 10.0 mi WNW 8.1 mph 16.1 mph N/A   Overcast
9:13 PM 39.2 °F - 39.2 °F 100% 29.43 in 10.0 mi Calm Calm - N/A   Overcast
9:32 PM 39.2 °F 33.6 °F 39.2 °F 100% 29.43 in 10.0 mi WNW 8.1 mph - N/A   Overcast
9:53 PM 41.0 °F 35.2 °F 39.2 °F 93% 29.43 in 7.0 mi WNW 9.2 mph 16.1 mph N/A   Overcast
10:12 PM 41.0 °F 36.4 °F 39.2 °F 93% 29.44 in 7.0 mi WNW 6.9 mph - N/A   Overcast
10:33 PM 41.0 °F 34.3 °F 39.2 °F 93% 29.44 in 7.0 mi WNW 11.5 mph 16.1 mph N/A   Overcast
10:52 PM 41.0 °F 38.0 °F 39.2 °F 93% 29.44 in 5.0 mi WNW 4.6 mph - N/A   Light Drizzle
11:13 PM 41.0 °F 35.8 °F 41.0 °F 100% 29.45 in 5.0 mi WNW 8.1 mph - N/A   Light Drizzle
11:33 PM 41.0 °F 35.2 °F 39.2 °F 93% 29.45 in 5.0 mi NW 9.2 mph - N/A   Overcast
11:52 PM 41.0 °F 35.8 °F 41.0 °F 100% 29.44 in 4.0 mi NW 8.1 mph - N/A   Overcast